Location: Kerb�bon
(47.7970°N, 3.3487°W)
Time: 13:15:28
(UTC+00:00)

Cosmos 1666 - Pass Details

Date: 12 May 2021
Orbit: 495 x 519 km, 82.5° (Epoch: 18 June)

Event Time Altitude Azimuth Distance (km) Brightness Sun altitude
Rises 20:35:29 0° 2° (N) 2,601 6.9 -8.4°
Reaches altitude 10° 20:37:57 10° 17° (NNE) 1,710 5.6 -8.7°
Maximum altitude 20:40:58 23° 71° (ENE) 1,113 4.1 -9.1°
Enters shadow 20:43:26 13° 119° (ESE) 1,538 4.5 -9.4°
